Location: �quirre
(50.4736°N, 2.2351°E)
Time: 08:26:05
(UTC+00:00)

Meteor 2-13 Rocket - Pass Details

Date: 07 August 2020
Orbit: 937 x 957 km, 82.5° (Epoch: 26 September)

Event Time Altitude Azimuth Distance (km) Brightness Sun altitude
Rises 01:22:50 0° 348° (NNW) 3,618 8.4 -20.6°
Reaches altitude 10° 01:25:19 10° 346° (NNW) 2,672 7.5 -20.4°
Maximum altitude 01:31:24 72° 264° (W) 994 4.4 -20.0°
Enters shadow 01:34:11 34° 188° (S) 1,513 5.0 -19.9°
